Location: Caltech
(34.1382°N, 118.1253°W)
Time: 14:06:22
(UTC-07:00)

Cosmos 1833 - Visible Passes

Search period start: 23 April 2014 00:00
Search period end: 03 May 2014 00:00
Orbit: 843 x 856 km, 70.9° (Epoch: 23 April)

Date Brightness Start Highest point End Pass type
(mag) Time Alt. Az. Time Alt. Az. Time Alt. Az.
23 Apr 6.2 02:12:33 10° N 02:16:55 24° ENE 02:16:55 24° ENE visible
23 Apr 5.5 03:56:06 10° NW 03:58:48 26° NW 03:58:48 26° NW visible
24 Apr 6.2 01:59:53 10° N 02:03:34 23° NE 02:03:34 23° NE visible
24 Apr 5.8 03:43:25 10° NW 03:45:29 22° NW 03:45:29 22° NW visible
25 Apr 6.3 01:47:13 10° N 01:50:25 22° NE 01:50:25 22° NE visible
25 Apr 6.0 03:30:44 10° NW 03:32:21 19° NW 03:32:21 19° NW visible
26 Apr 6.4 01:34:33 10° N 01:37:24 21° NE 01:37:24 21° NE visible
26 Apr 6.2 03:18:02 10° NW 03:19:20 17° NW 03:19:20 17° NW visible
27 Apr 6.5 01:21:53 10° N 01:24:29 20° NNE 01:24:29 20° NNE visible
27 Apr 6.3 03:05:21 10° NW 03:06:25 16° NW 03:06:25 16° NW visible
28 Apr 6.5 01:09:13 10° N 01:11:39 19° NNE 01:11:39 19° NNE visible
28 Apr 6.4 02:52:39 10° NW 02:53:35 15° NW 02:53:35 15° NW visible
29 Apr 6.5 00:56:33 10° N 00:58:52 19° NNE 00:58:52 19° NNE visible
29 Apr 6.5 02:39:58 10° NW 02:40:49 14° NW 02:40:49 14° NW visible
30 Apr 6.5 00:43:53 10° N 00:46:08 18° NNE 00:46:08 18° NNE visible
30 Apr 6.5 02:27:17 10° NW 02:28:05 14° NW 02:28:05 14° NW visible
01 May 6.5 00:31:13 10° N 00:33:28 18° NNE 00:33:28 18° NNE visible
01 May 6.5 02:14:35 10° NW 02:15:25 14° NW 02:15:25 14° NW visible
02 May 6.5 00:18:33 10° N 00:20:49 18° NNE 00:20:49 18° NNE visible
02 May 6.6 02:01:54 10° NW 02:02:46 15° NW 02:02:46 15° NW visible
